Flag for U.S.A. Weather past 2 weeks in Warminster Township, Pennsylvania, U.S.A.

Now
61 °F

Scattered clouds.


Feels Like: 61 °F
Forecast: 59 / 77 °F
Wind: 3 mph from North

Location: Doylestown Airport

Current Time: Jul 29, 2014 at 9:14:39 AM

Latest Report: Jul 29, 2014 at 7:54 AM


Visibility: 10 mi

Pressure: 29.87 "Hg

Humidity: 81%

Dew point: 55 °F

Location of Warminster TownshipLocation

Historic Weather in Warminster Township — Graph

°F

Warminster Township temperature yesterday

Maximum temperature yesterday: 80 °F (at 1:54 PM)
Minimum temperature yesterday: 64 °F (at 11:54 PM)
Average temperature yesterday: 71 °F

Past Weeks' High & Low Weather Summary

 TemperatureHumidityPressure
High89 °F (Jul 23, 3:54 PM)100% (Jul 14, 8:54 PM)30.23 "Hg (Jul 14, 8:54 PM)
Low57 °F (Jul 25, 5:54 AM)40% (Jul 17, 5:54 PM)29.52 "Hg (Jul 28, 4:54 AM)
Average72 °F76%29.94 "Hg
* Reported Jul 14 7:54 AM — Jul 29 7:54 AM, Warminster Township, Weather by CustomWeather, © 2014

Note: Actual official high and low records may vary slightly from our data, if they occured in-between our weather recording intervals... More about our weather records

Advertising

Warminster Township weather history for previous 24 hours

 ConditionsComfort  
Time TempWeatherWind HumidityBarometerVisibility
7:54 AM
Jul 29
61 °FScattered clouds.3 mph81%29.87 "Hg10 mi
6:54 AM58 °FClear.5 mph90%29.85 "Hg10 mi
5:54 AM58 °FClear.3 mph90%29.83 "Hg10 mi
4:54 AM58 °FClear.3 mph90%29.82 "Hg10 mi
3:54 AM60 °FClear.3 mph83%29.79 "Hg10 mi
2:54 AM61 °FClear.6 mph81%29.78 "Hg10 mi
1:54 AM62 °FClear.5 mph78%29.77 "Hg10 mi
12:54 AM63 °FClear.5 mph81%29.75 "Hg10 mi
11:54 PM
Jul 28
64 °FClear.7 mph78%29.75 "Hg10 mi
10:54 PM65 °FPassing clouds.8 mph78%29.75 "Hg10 mi
9:54 PM65 °FClear.5 mph85%29.73 "Hg10 mi
8:54 PM66 °FSunny.8 mph87%29.70 "Hg10 mi
7:54 PM68 °FScattered clouds.7 mph76%29.67 "Hg10 mi
6:54 PM71 °FMore clouds than sun.16 mph68%29.64 "Hg10 mi
5:54 PM79 °FPassing clouds.9 mph48%29.59 "Hg10 mi
4:54 PM80 °FScattered clouds.7 mph45%29.58 "Hg10 mi
3:54 PM79 °FScattered clouds.9 mph48%29.57 "Hg10 mi
2:54 PM77 °FBroken clouds.12 mph56%29.57 "Hg10 mi
1:54 PM80 °FPassing clouds.12 mph52%29.56 "Hg10 mi
12:54 PM78 °FBroken clouds.12 mph58%29.56 "Hg10 mi
11:54 AM77 °FPassing clouds.9 mph64%29.57 "Hg10 mi
10:54 AM74 °FBroken clouds.7 mph76%29.57 "Hg10 mi
9:54 AM73 °FScattered clouds.8 mph84%29.57 "Hg10 mi
9:03 AM70 °FPartly sunny.7 mph93%29.58 "Hg10 mi
Weather by CustomWeather, © 2014

See weather overviewHow to use our weather pages